QPF
0.00 0.00 0.00 0.00 0.00 0.00 0.00 0.00 0.00 0.00 0.00 0.00 0.00 0.00 0.00 0.00 0.00 0.00 0.00 0.00 0.00 0.00 0.01 0.01 0.01 0.02 0.02 0.02 0.03 0.04 0.05 0.05 0.05 0.05 0.07 0.08 0.07 0.05 0.04 0.05 0.06 0.06 0.05 0.04
0.00 0.00 0.00 0.00 0.00 0.00 0.00 0.00 0.00 0.00 0.00 0.00 0.00 0.00 0.01 0.00 0.00 0.00 0.00 0.00 0.00 0.01 0.01 0.01 0.01 0.01 0.01 0.02 0.03 0.05 0.06 0.07 0.07 0.06 0.07 0.08 0.08 0.06 0.05 0.05 0.08 0.07 0.06 0.04
0.00 0.00 0.00 0.00 0.00 0.00 0.00 0.00 0.00 0.00 0.00 0.00 0.00 0.00 0.02 0.02 0.00 0.00 0.00 0.00 0.00 0.01 0.02 0.01 0.01 0.01 0.01 0.01 0.02 0.03 0.04 0.07 0.07 0.08 0.09 0.11 0.11 0.07 0.07 0.08 0.09 0.06 0.05 0.04
0.00 0.00 0.00 0.00 0.00 0.00 0.00 0.00 0.00 0.00 0.00 0.00 0.00 0.00 0.01 0.01 0.00 0.00 0.00 0.00 0.00 0.01 0.02 0.01 0.00 0.00 0.00 0.01 0.02 0.03 0.04 0.07 0.09 0.09 0.09 0.11 0.11 0.10 0.10 0.10 0.11 0.10 0.07 0.06
0.00 0.00 0.00 0.00 0.00 0.00 0.00 0.00 0.00 0.00 0.00 0.00 0.00 0.00 0.00 0.01 0.00 0.00 0.00 0.00 0.00 0.00 0.00 0.00 0.00 0.00 0.00 0.01 0.01 0.03 0.05 0.08 0.09 0.07 0.08 0.11 0.12 0.12 0.13 0.12 0.13 0.12 0.10 0.10
0.00 0.00 0.00 0.00 0.00 0.00 0.00 0.00 0.00 0.00 0.00 0.00 0.00 0.00 0.00 0.01 0.00 0.00 0.00 0.00 0.00 0.00 0.00 0.00 0.00 0.00 0.00 0.01 0.01 0.03 0.05 0.07 0.07 0.06 0.08 0.09 0.12 0.14 0.15 0.14 0.14 0.11 0.08 0.09
0.00 0.00 0.00 0.00 0.00 0.00 0.00 0.00 0.00 0.00 0.00 0.00 0.00 0.00 0.00 0.00 0.00 0.00 0.00 0.00 0.00 0.00 0.00 0.00 0.00 0.00 0.00 0.01 0.01 0.01 0.03 0.04 0.06 0.08 0.09 0.08 0.11 0.12 0.11 0.12 0.13 0.13 0.09 0.08
0.00 0.00 0.00 0.00 0.00 0.00 0.00 0.00 0.00 0.00 0.00 0.00 0.00 0.00 0.00 0.00 0.00 0.00 0.00 0.00 0.00 0.01 0.01 0.03 0.02 0.00 0.00 0.00 0.01 0.01 0.03 0.04 0.06 0.08 0.09 0.08 0.09 0.09 0.09 0.10 0.12 0.12 0.12 0.11
0.00 0.00 0.00 0.00 0.00 0.00 0.00 0.00 0.00 0.00 0.00 0.00 0.00 0.00 0.00 0.00 0.00 0.00 0.00 0.00 0.00 0.01 0.02 0.00 0.00 0.01 0.01 0.00 0.00 0.02 0.03 0.03 0.03 0.05 0.07 0.07 0.07 0.08 0.10 0.12 0.13 0.14 0.12 0.11
0.00 0.00 0.00 0.00 0.00 0.00 0.00 0.00 0.00 0.00 0.00 0.00 0.00 0.00 0.00 0.00 0.00 0.00 0.00 0.00 0.00 0.01 0.02 0.00 0.00 0.01 0.01 0.00 0.00 0.01 0.02 0.02 0.02 0.03 0.04 0.04 0.06 0.06 0.09 0.12 0.13 0.14 0.12 0.10
0.00 0.00 0.00 0.00 0.00 0.00 0.00 0.00 0.00 0.00 0.00 0.00 0.00 0.00 0.01 0.00 0.00 0.00 0.00 0.01 0.02 0.02 0.02 0.01 0.00 0.01 0.00 0.00 0.00 0.01 0.01 0.02 0.02 0.03 0.03 0.04 0.05 0.05 0.07 0.09 0.10 0.10 0.10 0.10
0.00 0.00 0.00 0.00 0.00 0.00 0.00 0.00 0.00 0.00 0.00 0.00 0.00 0.00 0.00 0.00 0.00 0.00 0.00 0.02 0.02 0.01 0.02 0.03 0.01 0.00 0.00 0.00 0.00 0.00 0.01 0.01 0.02 0.03 0.03 0.04 0.05 0.05 0.05 0.06 0.08 0.09 0.09 0.09
0.00 0.00 0.00 0.00 0.00 0.00 0.00 0.00 0.00 0.00 0.00 0.00 0.00 0.00 0.00 0.00 0.00 0.00 0.00 0.00 0.00 0.00 0.02 0.06 0.03 0.00 0.00 0.00 0.00 0.00 0.00 0.01 0.02 0.02 0.03 0.03 0.04 0.05 0.06 0.06 0.06 0.08 0.09 0.09
0.00 0.00 0.00 0.00 0.00 0.00 0.00 0.00 0.00 0.00 0.00 0.00 0.00 0.00 0.00 0.00 0.00 0.00 0.00 0.00 0.00 0.00 0.00 0.02 0.02 0.00 0.00 0.00 0.00 0.00 0.00 0.00 0.01 0.02 0.03 0.04 0.05 0.06 0.07 0.07 0.08 0.08 0.08 0.09
0.00 0.00 0.00 0.00 0.00 0.00 0.00 0.00 0.00 0.00 0.00 0.00 0.00 0.00 0.00 0.00 0.00 0.00 0.01 0.00 0.00 0.00 0.00 0.00 0.00 0.00 0.00 0.00 0.00 0.00 0.00 0.01 0.01 0.01 0.02 0.03 0.04 0.05 0.07 0.09 0.09 0.08 0.08 0.08
0.00 0.00 0.00 0.00 0.00 0.00 0.00 0.00 0.00 0.00 0.00 0.00 0.00 0.00 0.00 0.00 0.00 0.00 0.00 0.00 0.00 0.00 0.00 0.00 0.00 0.00 0.00 0.00 0.00 0.00 0.00 0.00 0.00 0.01 0.02 0.02 0.03 0.05 0.06 0.07 0.07 0.07 0.07 0.07
0.00 0.00 0.00 0.00 0.00 0.00 0.00 0.00 0.00 0.00 0.00 0.00 0.00 0.00 0.00 0.00 0.00 0.00 0.00 0.00 0.00 0.00 0.01 0.01 0.00 0.00 0.00 0.00 0.00 0.00 0.00 0.00 0.00 0.01 0.02 0.02 0.02 0.03 0.04 0.04 0.05 0.05 0.06 0.07
0.00 0.00 0.00 0.00 0.00 0.00 0.00 0.00 0.00 0.00 0.00 0.00 0.00 0.00 0.00 0.01 0.00 0.00 0.00 0.00 0.00 0.00 0.01 0.03 0.00 0.00 0.00 0.00 0.00 0.00 0.01 0.01 0.00 0.01 0.01 0.01 0.01 0.02 0.02 0.03 0.04 0.05 0.05 0.06
0.00 0.00 0.00 0.00 0.00 0.00 0.00 0.00 0.00 0.00 0.00 0.00 0.00 0.00 0.00 0.00 0.00 0.00 0.00 0.00 0.01 0.00 0.00 0.00 0.00 0.00 0.01 0.01 0.01 0.01 0.01 0.01 0.00 0.01 0.01 0.01 0.01 0.02 0.03 0.03 0.04 0.04 0.04 0.04
0.00 0.00 0.00 0.00 0.00 0.00 0.00 0.00 0.00 0.00 0.00 0.00 0.00 0.00 0.00 0.00 0.00 0.01 0.01 0.01 0.00 0.00 0.00 0.00 0.00 0.00 0.01 0.02 0.02 0.01 0.01 0.01 0.01 0.01 0.01 0.01 0.02 0.03 0.04 0.04 0.03 0.04 0.04 0.04
0.00 0.00 0.00 0.00 0.00 0.00 0.00 0.00 0.00 0.00 0.02 0.02 0.00 0.00 0.00 0.00 0.00 0.00 0.00 0.01 0.00 0.00 0.00 0.01 0.01 0.01 0.02 0.02 0.02 0.02 0.03 0.03 0.04 0.03 0.03 0.03 0.04 0.05 0.05 0.05 0.03 0.03 0.03 0.04
0.00 0.00 0.00 0.00 0.00 0.01 0.01 0.01 0.01 0.02 0.01 0.02 0.01 0.00 0.00 0.00 0.00 0.00 0.00 0.00 0.00 0.00 0.00 0.01 0.01 0.02 0.02 0.02 0.02 0.03 0.03 0.04 0.04 0.03 0.03 0.03 0.04 0.04 0.05 0.04 0.03 0.02 0.03 0.03
0.00 0.00 0.00 0.00 0.00 0.01 0.01 0.02 0.01 0.01 0.01 0.01 0.00 0.00 0.00 0.00 0.00 0.00 0.00 0.00 0.00 0.00 0.00 0.01 0.01 0.01 0.02 0.02 0.02 0.03 0.03 0.03 0.03 0.03 0.03 0.04 0.04 0.04 0.04 0.03 0.02 0.02 0.02 0.02
0.00 0.00 0.00 0.00 0.00 0.00 0.01 0.01 0.01 0.00 0.00 0.00 0.00 0.00 0.00 0.00 0.00 0.00 0.00 0.00 0.00 0.01 0.01 0.01 0.01 0.01 0.02 0.02 0.02 0.03 0.03 0.03 0.03 0.03 0.03 0.03 0.03 0.03 0.03 0.02 0.01 0.02 0.02 0.02
0.00 0.00 0.00 0.01 0.02 0.01 0.01 0.00 0.00 0.00 0.00 0.00 0.00 0.00 0.00 0.00 0.00 0.00 0.00 0.00 0.00 0.01 0.01 0.01 0.02 0.02 0.02 0.02 0.02 0.03 0.03 0.03 0.03 0.04 0.04 0.04 0.04 0.03 0.03 0.03 0.03 0.03 0.03 0.03
0.01 0.01 0.01 0.02 0.02 0.02 0.01 0.00 0.00 0.00 0.00 0.00 0.00 0.00 0.01 0.01 0.01 0.01 0.01 0.01 0.01 0.01 0.02 0.02 0.02 0.02 0.02 0.02 0.02 0.03 0.03 0.03 0.03 0.04 0.03 0.03 0.02 0.02 0.02 0.03 0.03 0.04 0.03 0.02
MSLP
1008.90 1009.42 1009.80 1010.04 1010.16 1010.19 1010.17 1010.09 1009.97 1009.79 1009.55 1009.23 1008.85 1008.43 1008.02 1007.69 1007.47 1007.40 1007.51 1007.79 1008.20 1008.70 1009.26 1009.82 1010.36 1010.89 1011.39 1011.90 1012.42 1012.96 1013.51 1014.06 1014.56 1015.00 1015.35 1015.60 1015.76 1015.85 1015.90 1015.95 1016.03 1016.16 1016.35 1016.59
1009.42 1009.78 1010.01 1010.14 1010.20 1010.23 1010.27 1010.30 1010.32 1010.27 1010.13 1009.85 1009.45 1008.94 1008.39 1007.87 1007.46 1007.22 1007.20 1007.39 1007.78 1008.32 1008.93 1009.57 1010.18 1010.76 1011.29 1011.80 1012.31 1012.84 1013.38 1013.93 1014.47 1014.96 1015.36 1015.66 1015.85 1015.95 1015.97 1015.98 1015.99 1016.06 1016.19 1016.40
1009.83 1010.01 1010.08 1010.08 1010.08 1010.13 1010.25 1010.42 1010.60 1010.71 1010.68 1010.47 1010.05 1009.46 1008.76 1008.05 1007.44 1007.03 1006.86 1006.97 1007.33 1007.88 1008.55 1009.27 1009.96 1010.59 1011.16 1011.68 1012.17 1012.67 1013.20 1013.76 1014.32 1014.85 1015.31 1015.67 1015.91 1016.03 1016.06 1016.04 1016.02 1016.04 1016.13 1016.30
1010.10 1010.11 1010.03 1009.93 1009.89 1009.98 1010.20 1010.53 1010.88 1011.15 1011.25 1011.10 1010.67 1009.99 1009.15 1008.25 1007.43 1006.82 1006.51 1006.51 1006.83 1007.40 1008.13 1008.92 1009.69 1010.38 1010.99 1011.51 1012.00 1012.48 1012.98 1013.53 1014.10 1014.66 1015.18 1015.60 1015.90 1016.07 1016.14 1016.12 1016.09 1016.07 1016.12 1016.25
1010.23 1010.10 1009.90 1009.73 1009.70 1009.85 1010.19 1010.68 1011.20 1011.63 1011.85 1011.76 1011.31 1010.55 1009.56 1008.47 1007.45 1006.65 1006.18 1006.08 1006.35 1006.92 1007.69 1008.55 1009.39 1010.15 1010.79 1011.33 1011.80 1012.25 1012.72 1013.25 1013.81 1014.40 1014.95 1015.44 1015.81 1016.04 1016.15 1016.17 1016.14 1016.11 1016.13 1016.23
1010.19 1009.97 1009.71 1009.53 1009.54 1009.78 1010.26 1010.90 1011.59 1012.16 1012.48 1012.44 1011.98 1011.13 1010.00 1008.74 1007.54 1006.56 1005.93 1005.73 1005.93 1006.49 1007.29 1008.21 1009.11 1009.92 1010.60 1011.14 1011.60 1012.01 1012.44 1012.93 1013.47 1014.06 1014.64 1015.17 1015.60 1015.91 1016.08 1016.14 1016.13 1016.10 1016.11 1016.18
1010.00 1009.74 1009.48 1009.34 1009.42 1009.77 1010.38 1011.17 1012.00 1012.69 1013.09 1013.08 1012.61 1011.70 1010.47 1009.07 1007.71 1006.58 1005.82 1005.51 1005.66 1006.19 1007.00 1007.95 1008.89 1009.74 1010.44 1010.99 1011.42 1011.79 1012.16 1012.59 1013.10 1013.66 1014.25 1014.81 1015.29 1015.65 1015.88 1015.99 1016.01 1015.99 1015.99 1016.04
1009.65 1009.41 1009.20 1009.13 1009.31 1009.77 1010.50 1011.41 1012.34 1013.12 1013.59 1013.61 1013.14 1012.20 1010.90 1009.42 1007.96 1006.73 1005.87 1005.48 1005.56 1006.06 1006.86 1007.81 1008.77 1009.63 1010.34 1010.87 1011.27 1011.60 1011.91 1012.28 1012.72 1013.25 1013.81 1014.37 1014.88 1015.28 1015.55 1015.71 1015.76 1015.77 1015.78 1015.82
1009.18 1009.00 1008.88 1008.91 1009.18 1009.74 1010.55 1011.53 1012.53 1013.35 1013.86 1013.91 1013.45 1012.52 1011.22 1009.72 1008.23 1006.96 1006.05 1005.61 1005.64 1006.09 1006.86 1007.79 1008.74 1009.59 1010.29 1010.80 1011.17 1011.45 1011.71 1012.00 1012.38 1012.84 1013.37 1013.90 1014.40 1014.82 1015.13 1015.32 1015.41 1015.45 1015.46 1015.51
1008.67 1008.57 1008.54 1008.66 1009.01 1009.63 1010.47 1011.47 1012.46 1013.29 1013.80 1013.87 1013.46 1012.58 1011.34 1009.90 1008.46 1007.21 1006.31 1005.84 1005.83 1006.24 1006.95 1007.83 1008.75 1009.58 1010.25 1010.75 1011.09 1011.33 1011.54 1011.78 1012.09 1012.48 1012.95 1013.44 1013.92 1014.33 1014.65 1014.86 1014.99 1015.05 1015.09 1015.15
1008.20 1008.20 1008.25 1008.44 1008.83 1009.44 1010.26 1011.19 1012.12 1012.89 1013.37 1013.45 1013.09 1012.30 1011.18 1009.86 1008.54 1007.38 1006.53 1006.08 1006.05 1006.41 1007.06 1007.87 1008.73 1009.51 1010.16 1010.65 1010.98 1011.20 1011.39 1011.59 1011.85 1012.19 1012.59 1013.03 1013.46 1013.85 1014.17 1014.39 1014.54 1014.64 1014.71 1014.80
1007.91 1007.99 1008.10 1008.32 1008.70 1009.25 1009.95 1010.76 1011.55 1012.20 1012.61 1012.68 1012.36 1011.68 1010.71 1009.57 1008.41 1007.40 1006.64 1006.23 1006.20 1006.50 1007.07 1007.81 1008.59 1009.33 1009.95 1010.43 1010.78 1011.02 1011.21 1011.41 1011.64 1011.94 1012.29 1012.68 1013.07 1013.42 1013.72 1013.95 1014.13 1014.25 1014.37 1014.49
1007.89 1008.03 1008.18 1008.39 1008.70 1009.13 1009.67 1010.26 1010.85 1011.33 1011.61 1011.63 1011.35 1010.79 1009.98 1009.03 1008.08 1007.23 1006.59 1006.24 1006.20 1006.45 1006.94 1007.59 1008.29 1008.97 1009.58 1010.07 1010.45 1010.74 1010.97 1011.20 1011.44 1011.73 1012.04 1012.39 1012.73 1013.05 1013.34 1013.57 1013.76 1013.92 1014.08 1014.25
1008.19 1008.38 1008.55 1008.72 1008.92 1009.18 1009.49 1009.83 1010.15 1010.41 1010.53 1010.47 1010.20 1009.72 1009.07 1008.32 1007.57 1006.89 1006.38 1006.09 1006.04 1006.24 1006.64 1007.19 1007.81 1008.43 1009.02 1009.53 1009.97 1010.33 1010.64 1010.93 1011.22 1011.51 1011.82 1012.14 1012.45 1012.74 1013.01 1013.24 1013.45 1013.65 1013.85 1014.07
1008.80 1009.02 1009.19 1009.30 1009.37 1009.43 1009.49 1009.55 1009.58 1009.58 1009.50 1009.32 1009.03 1008.62 1008.11 1007.54 1006.97 1006.46 1006.06 1005.83 1005.78 1005.92 1006.22 1006.66 1007.19 1007.76 1008.33 1008.87 1009.37 1009.82 1010.23 1010.60 1010.95 1011.29 1011.61 1011.91 1012.20 1012.47 1012.72 1012.95 1013.18 1013.42 1013.66 1013.92
1009.62 1009.87 1010.02 1010.07 1010.01 1009.87 1009.67 1009.44 1009.18 1008.91 1008.63 1008.32 1007.98 1007.61 1007.21 1006.79 1006.39 1006.03 1005.74 1005.55 1005.50 1005.57 1005.79 1006.12 1006.56 1007.06 1007.61 1008.17 1008.73 1009.27 1009.78 1010.24 1010.66 1011.04 1011.39 1011.69 1011.96 1012.22 1012.46 1012.70 1012.94 1013.21 1013.49 1013.79
1010.50 1010.77 1010.90 1010.88 1010.70 1010.39 1009.96 1009.47 1008.95 1008.43 1007.95 1007.51 1007.12 1006.77 1006.46 1006.18 1005.92 1005.69 1005.50 1005.37 1005.30 1005.33 1005.46 1005.70 1006.04 1006.47 1006.99 1007.56 1008.16 1008.77 1009.35 1009.90 1010.39 1010.81 1011.18 1011.48 1011.75 1011.99 1012.22 1012.46 1012.72 1013.01 1013.32 1013.66
1011.26 1011.52 1011.63 1011.56 1011.28 1010.83 1010.22 1009.52 1008.79 1008.07 1007.43 1006.89 1006.46 1006.14 1005.91 1005.75 1005.62 1005.52 1005.43 1005.36 1005.31 1005.31 1005.37 1005.52 1005.78 1006.14 1006.61 1007.17 1007.78 1008.42 1009.06 1009.65 1010.18 1010.64 1011.01 1011.32 1011.57 1011.79 1012.01 1012.25 1012.51 1012.82 1013.16 1013.52
1011.73 1011.97 1012.05 1011.93 1011.59 1011.04 1010.31 1009.47 1008.59 1007.75 1007.00 1006.40 1005.95 1005.67 1005.53 1005.49 1005.51 1005.54 1005.57 1005.58 1005.57 1005.56 1005.59 1005.68 1005.87 1006.16 1006.57 1007.09 1007.69 1008.33 1008.97 1009.57 1010.11 1010.57 1010.94 1011.23 1011.46 1011.66 1011.86 1012.08 1012.35 1012.66 1013.01 1013.39
1011.83 1012.02 1012.07 1011.91 1011.53 1010.93 1010.14 1009.23 1008.27 1007.36 1006.57 1005.96 1005.54 1005.33 1005.29 1005.38 1005.55 1005.73 1005.89 1006.01 1006.07 1006.10 1006.13 1006.19 1006.33 1006.57 1006.92 1007.37 1007.92 1008.52 1009.13 1009.71 1010.22 1010.65 1010.99 1011.24 1011.44 1011.61 1011.78 1011.98 1012.23 1012.54 1012.90 1013.28
1011.58 1011.70 1011.70 1011.51 1011.11 1010.49 1009.69 1008.77 1007.81 1006.90 1006.12 1005.53 1005.18 1005.05 1005.13 1005.36 1005.68 1006.03 1006.34 1006.59 1006.77 1006.87 1006.94 1007.01 1007.13 1007.32 1007.61 1008.00 1008.47 1009.00 1009.54 1010.06 1010.51 1010.88 1011.17 1011.38 1011.53 1011.66 1011.79 1011.97 1012.20 1012.49 1012.83 1013.22
1011.07 1011.11 1011.05 1010.84 1010.43 1009.83 1009.06 1008.17 1007.25 1006.38 1005.66 1005.13 1004.86 1004.83 1005.02 1005.39 1005.87 1006.38 1006.85 1007.26 1007.57 1007.78 1007.92 1008.03 1008.15 1008.32 1008.56 1008.88 1009.27 1009.71 1010.17 1010.59 1010.97 1011.26 1011.48 1011.63 1011.73 1011.81 1011.90 1012.04 1012.24 1012.51 1012.83 1013.20
1010.47 1010.43 1010.31 1010.08 1009.68 1009.11 1008.39 1007.56 1006.71 1005.92 1005.26 1004.82 1004.62 1004.68 1004.97 1005.47 1006.07 1006.73 1007.36 1007.92 1008.37 1008.71 1008.95 1009.13 1009.28 1009.45 1009.65 1009.91 1010.22 1010.57 1010.92 1011.25 1011.53 1011.74 1011.89 1011.97 1012.01 1012.04 1012.09 1012.19 1012.35 1012.59 1012.89 1013.23
1009.95 1009.82 1009.67 1009.42 1009.04 1008.52 1007.86 1007.11 1006.34 1005.62 1005.04 1004.66 1004.52 1004.64 1005.01 1005.59 1006.29 1007.06 1007.82 1008.51 1009.09 1009.56 1009.91 1010.17 1010.37 1010.56 1010.75 1010.96 1011.20 1011.46 1011.72 1011.95 1012.14 1012.27 1012.34 1012.36 1012.35 1012.34 1012.35 1012.41 1012.54 1012.74 1013.00 1013.31
1009.62 1009.44 1009.26 1009.02 1008.67 1008.20 1007.61 1006.94 1006.24 1005.59 1005.07 1004.73 1004.63 1004.77 1005.17 1005.78 1006.53 1007.36 1008.20 1008.99 1009.69 1010.27 1010.72 1011.06 1011.33 1011.54 1011.73 1011.91 1012.10 1012.29 1012.47 1012.61 1012.72 1012.78 1012.79 1012.76 1012.71 1012.67 1012.65 1012.68 1012.78 1012.94 1013.18 1013.46
1009.54 1009.35 1009.16 1008.93 1008.62 1008.21 1007.69 1007.09 1006.46 1005.86 1005.37 1005.05 1004.95 1005.08 1005.46 1006.05 1006.80 1007.64 1008.52 1009.36 1010.13 1010.79 1011.33 1011.75 1012.07 1012.33 1012.53 1012.70 1012.85 1012.99 1013.11 1013.19 1013.24 1013.25 1013.22 1013.15 1013.08 1013.01 1012.98 1012.99 1013.07 1013.21 1013.42 1013.67
Thickness
5852 5841 5836 5850 5861 5858 5856 5854 5854 5864 5876 5864 5855 5854 5860 5867 5862 5852 5845 5839 5831 5828 5828 5824 5818 5813 5806 5799 5793 5787 5782 5778 5773 5767 5762 5758 5758 5759 5760 5760 5760 5759 5759 5759
5838 5834 5854 5866 5864 5856 5850 5844 5850 5863 5872 5861 5852 5852 5860 5862 5860 5856 5848 5841 5836 5830 5826 5822 5818 5813 5806 5799 5794 5788 5783 5779 5774 5770 5766 5762 5760 5759 5760 5761 5759 5759 5758 5758
5829 5849 5864 5856 5849 5842 5843 5843 5848 5851 5862 5863 5853 5841 5847 5855 5861 5860 5855 5850 5843 5834 5826 5821 5818 5814 5808 5801 5796 5792 5786 5781 5776 5772 5767 5763 5759 5758 5758 5758 5758 5759 5759 5758
5838 5856 5853 5844 5841 5842 5835 5857 5854 5849 5840 5836 5848 5822 5838 5848 5850 5852 5851 5850 5844 5839 5834 5826 5821 5816 5811 5805 5801 5794 5788 5782 5777 5772 5767 5761 5756 5754 5757 5758 5758 5759 5759 5759
5835 5848 5843 5835 5842 5849 5845 5860 5853 5846 5837 5830 5842 5830 5834 5848 5840 5846 5851 5852 5848 5843 5838 5830 5825 5820 5815 5810 5804 5796 5789 5783 5778 5774 5769 5763 5760 5759 5759 5759 5758 5758 5759 5758
5842 5859 5855 5848 5855 5857 5855 5849 5844 5841 5834 5812 5832 5827 5822 5840 5843 5848 5852 5853 5849 5845 5839 5833 5829 5823 5817 5812 5806 5798 5790 5783 5779 5774 5770 5765 5761 5759 5758 5757 5756 5756 5757 5758
5823 5839 5854 5857 5842 5848 5843 5822 5805 5803 5805 5806 5836 5831 5832 5852 5859 5857 5852 5851 5850 5846 5839 5831 5826 5820 5815 5810 5805 5799 5790 5783 5780 5775 5771 5767 5764 5761 5758 5757 5756 5755 5756 5757
5805 5811 5839 5848 5839 5834 5833 5826 5800 5791 5800 5809 5825 5826 5842 5865 5866 5865 5861 5855 5850 5845 5840 5832 5827 5822 5816 5811 5805 5799 5791 5784 5780 5775 5771 5768 5765 5762 5761 5759 5758 5756 5756 5758
5820 5819 5852 5854 5854 5844 5830 5828 5839 5823 5818 5812 5826 5840 5849 5862 5858 5857 5856 5850 5846 5844 5838 5833 5829 5825 5818 5812 5806 5800 5792 5785 5781 5776 5772 5768 5765 5763 5761 5761 5760 5758 5758 5759
5829 5819 5846 5854 5850 5847 5843 5840 5831 5816 5796 5791 5814 5825 5826 5834 5842 5846 5847 5845 5844 5841 5836 5833 5830 5825 5820 5815 5809 5802 5795 5788 5783 5778 5773 5770 5767 5764 5762 5760 5759 5759 5758 5758
5831 5813 5826 5838 5825 5823 5828 5825 5823 5821 5819 5798 5792 5804 5841 5840 5845 5845 5846 5847 5845 5841 5837 5833 5830 5826 5822 5816 5809 5802 5795 5789 5783 5779 5775 5771 5767 5764 5762 5760 5759 5758 5757 5756
5829 5816 5806 5824 5844 5846 5837 5828 5822 5800 5801 5810 5803 5814 5856 5855 5856 5853 5849 5846 5846 5843 5840 5833 5830 5825 5820 5814 5809 5802 5796 5790 5785 5781 5776 5771 5768 5765 5762 5760 5759 5758 5756 5755
5822 5805 5785 5794 5817 5831 5827 5831 5830 5824 5813 5805 5800 5811 5853 5852 5853 5852 5849 5844 5844 5840 5837 5832 5827 5822 5818 5813 5808 5803 5797 5792 5787 5782 5777 5772 5768 5765 5762 5760 5759 5757 5755 5754
5817 5799 5789 5786 5805 5824 5817 5822 5828 5820 5806 5803 5810 5816 5833 5841 5843 5845 5844 5843 5841 5836 5832 5829 5823 5820 5816 5812 5807 5802 5798 5794 5788 5783 5776 5771 5767 5765 5762 5760 5758 5756 5754 5752
5805 5788 5793 5804 5820 5828 5825 5823 5823 5818 5816 5810 5818 5821 5831 5841 5843 5843 5841 5839 5836 5831 5828 5825 5821 5817 5813 5809 5805 5801 5797 5793 5789 5782 5776 5771 5768 5765 5762 5758 5756 5753 5751 5750
5791 5780 5784 5787 5807 5816 5816 5824 5827 5823 5823 5821 5821 5822 5843 5845 5845 5839 5837 5835 5830 5828 5826 5824 5821 5816 5811 5806 5803 5799 5795 5791 5787 5780 5775 5771 5766 5763 5759 5755 5752 5750 5747 5746
5778 5767 5763 5770 5794 5799 5793 5815 5823 5826 5830 5826 5816 5825 5840 5836 5832 5832 5833 5832 5828 5826 5823 5821 5819 5814 5810 5806 5803 5796 5793 5789 5783 5778 5773 5769 5764 5760 5756 5753 5750 5747 5744 5741
5762 5759 5759 5763 5770 5757 5799 5836 5835 5827 5830 5836 5833 5835 5836 5832 5832 5834 5834 5831 5827 5825 5822 5818 5816 5812 5809 5806 5802 5796 5791 5786 5780 5775 5770 5766 5762 5757 5754 5750 5746 5743 5740 5737
5762 5751 5748 5752 5753 5767 5799 5824 5828 5818 5816 5835 5832 5833 5834 5834 5828 5821 5828 5828 5824 5823 5820 5817 5815 5810 5806 5802 5798 5792 5786 5781 5776 5771 5766 5763 5759 5754 5749 5745 5741 5738 5735 5732
5752 5748 5738 5742 5740 5748 5786 5821 5834 5821 5800 5829 5831 5828 5829 5824 5803 5799 5816 5819 5817 5816 5814 5812 5810 5806 5799 5796 5793 5786 5780 5776 5771 5768 5764 5760 5756 5750 5745 5741 5738 5735 5731 5728
5727 5729 5726 5729 5734 5757 5795 5815 5815 5781 5782 5813 5820 5819 5817 5808 5804 5805 5809 5808 5807 5805 5803 5801 5798 5794 5790 5788 5785 5778 5774 5769 5768 5764 5760 5755 5751 5746 5742 5737 5733 5730 5726 5723
5726 5723 5722 5725 5724 5741 5787 5795 5783 5777 5794 5800 5802 5805 5803 5801 5802 5801 5798 5795 5794 5791 5790 5789 5785 5781 5780 5779 5774 5768 5764 5764 5762 5757 5752 5748 5744 5741 5737 5731 5727 5723 5720 5716
5735 5738 5739 5737 5740 5762 5775 5777 5781 5786 5783 5786 5789 5793 5793 5790 5787 5786 5784 5783 5782 5780 5778 5777 5774 5770 5768 5767 5764 5757 5756 5755 5752 5748 5743 5739 5736 5732 5728 5723 5719 5715 5712 5709
5734 5743 5739 5736 5745 5754 5762 5767 5772 5775 5774 5779 5782 5783 5783 5777 5775 5772 5770 5769 5768 5766 5765 5764 5761 5757 5753 5753 5751 5748 5746 5745 5741 5736 5732 5729 5726 5722 5718 5715 5712 5708 5704 5702
5711 5720 5723 5723 5732 5737 5743 5750 5755 5761 5765 5767 5769 5770 5769 5765 5762 5760 5757 5755 5754 5752 5751 5749 5746 5742 5739 5738 5737 5736 5735 5732 5729 5725 5722 5719 5716 5713 5708 5703 5698 5696 5692 5690
5701 5701 5702 5704 5714 5718 5722 5736 5743 5745 5748 5752 5753 5753 5754 5753 5750 5749 5746 5744 5741 5739 5737 5735 5732 5729 5727 5725 5724 5723 5722 5720 5717 5714 5712 5710 5707 5704 5700 5694 5687 5681 5679 5676